Location: Newark
(48.5156°N, 1.8989°W)
Time: 23:48:36
(UTC+00:00)

Courier 1B - Pass Details

Date: 24 November 2019
Orbit: 963 x 1209 km, 28.3° (Epoch: 12 December)

Event Time Altitude Azimuth Distance (km) Brightness Sun altitude
Exits shadow 05:29:13 - 221° (SW) 3,455 10.1 -19.2°
Reaches altitude 10° 05:31:57 10° 204° (SSW) 2,901 9.8 -18.8°
Maximum altitude 05:35:01 13° 178° (S) 2,627 9.9 -18.3°
Drops below altitude 10° 05:38:01 10° 152° (SSE) 2,822 10.4 -17.8°
Sets 05:42:18 0° 127° (SE) 3,723 11.8 -17.1°
